Back to catalog

COSMOS 1823 DEB

AliveLEO
NORAD 19005·DEBRIS·🇷🇺 Russia

Launched Feb 20, 1987 from Plesetsk Cosmodrome

Loading…

Next Passes (next 24 hours)

TLE

FreshSource: Space-Track

Epoch: Sep 14, 2026, 12:35 UTC

1 19005U 87020BA  26257.52475789 -.00000040  00000-0 -17262-3 0  9998
2 19005  73.8711 190.7131 0033061  15.8638 100.2719 12.43370101756617

Track COSMOS 1823 DEB in real time with AllMySat

Download on the App Store